Theta_e
324 324 325 325 325 325 325 325 325 325 324 324 325 324 325 324 325 325 325 325 325 326 325 326 325 326 326 326 327 327 326 313 309 308 301 302 312 332 333 336 335 335 324 302 302 301 299 298 302 298 302 300 301 302 302 299 297 296 292 287 289 286 287 289 291 291 291 292 293 290 292 296 293 294 298 297 297 294 296 300 299 304 308 310 314 313 313 319
324 324 325 324 325 325 325 324 324 324 324 324 324 324 324 324 324 324 324 324 325 325 325 325 326 326 326 326 327 327 317 311 307 305 305 315 326 337 337 337 336 332 315 304 302 298 298 297 298 297 299 300 300 301 301 300 298 293 288 290 292 286 290 292 290 292 292 296 292 292 289 294 295 294 296 296 294 294 298 298 296 301 304 308 312 313 315 322
324 324 324 324 324 324 324 323 323 323 323 323 323 323 323 323 324 323 323 324 324 325 324 325 326 325 326 326 326 325 310 305 301 298 303 328 337 337 336 334 338 332 304 302 298 299 299 299 296 298 294 296 295 299 297 300 298 293 294 292 287 290 290 290 290 292 290 291 292 292 291 292 294 294 295 297 293 293 296 295 296 298 301 305 309 315 320 323
324 324 323 324 323 323 323 322 322 322 323 323 323 323 323 323 323 323 323 323 323 324 324 324 325 326 324 325 326 319 305 299 295 299 299 326 337 338 336 333 334 325 301 298 297 297 295 297 295 298 296 294 292 295 298 298 301 295 291 288 293 290 293 294 289 289 289 291 291 291 289 292 293 292 295 293 295 294 293 293 299 298 300 303 311 316 320 323
323 323 323 323 322 322 322 322 322 322 322 322 322 322 323 322 322 322 322 323 323 324 324 324 325 324 324 324 324 313 300 293 296 296 305 333 337 336 336 336 330 308 303 297 298 296 298 297 295 293 295 294 294 294 292 294 295 293 293 291 291 289 292 292 288 290 288 289 291 288 294 293 292 293 292 294 294 294 296 299 296 299 300 307 312 316 321 322
323 323 322 321 321 321 322 321 321 321 322 322 321 321 322 322 321 322 322 322 322 323 323 324 324 324 324 324 313 306 298 289 298 306 322 333 335 336 336 334 325 302 300 299 297 296 299 298 299 298 292 294 294 294 293 291 293 296 291 288 289 290 292 290 289 289 288 290 291 291 294 293 293 293 289 292 296 294 293 295 294 296 300 311 315 317 320 321
322 322 321 321 322 321 321 321 321 321 322 321 321 321 321 321 321 321 321 321 322 322 323 324 324 323 323 320 310 304 296 297 302 311 327 332 334 334 331 327 318 300 299 299 297 299 296 295 296 291 289 289 291 290 292 293 291 290 293 289 291 288 292 289 290 287 287 290 291 291 292 293 291 294 291 291 294 293 292 291 291 290 311 314 315 317 320 321
321 321 320 320 321 321 320 321 321 321 321 321 321 321 320 320 320 320 320 321 321 322 322 323 323 324 321 306 302 299 298 294 303 310 322 328 326 323 312 303 302 302 300 300 298 295 294 296 297 290 290 293 292 293 293 293 292 293 291 290 289 289 290 288 285 286 287 288 288 290 293 292 290 292 290 291 295 294 292 299 302 308 311 313 314 316 319 321
319 319 319 320 320 320 320 320 320 320 321 321 321 320 320 320 319 319 320 320 321 321 322 323 323 323 320 301 296 294 295 302 308 311 312 309 313 309 306 307 302 301 298 297 297 297 298 293 293 294 293 290 292 292 291 293 292 291 291 289 290 291 289 289 289 287 288 289 289 292 291 290 289 290 292 294 292 290 291 302 306 307 310 311 313 316 318 319
319 319 319 319 319 319 320 321 320 320 321 321 320 319 319 319 319 319 319 320 320 321 321 322 323 322 309 298 295 291 298 307 311 307 305 305 307 307 305 304 301 298 300 298 295 296 298 294 296 295 293 291 291 292 289 293 291 289 289 289 291 291 290 289 291 289 288 291 287 292 290 292 291 291 291 291 291 288 298 299 302 307 309 310 312 315 317 318
319 319 320 319 319 319 319 319 320 320 321 320 319 318 318 318 318 318 318 319 320 320 321 322 322 315 305 296 293 290 305 310 310 305 302 304 305 304 304 302 299 301 299 298 297 296 297 296 295 295 298 294 291 290 289 292 290 290 291 290 290 288 290 289 289 289 290 293 288 292 291 291 291 291 291 292 291 291 296 299 301 301 305 309 309 312 314 315
319 320 319 319 319 319 318 318 319 320 320 319 318 317 317 318 318 318 318 319 319 320 321 322 322 305 296 295 291 295 302 309 308 304 303 304 304 305 304 302 300 300 300 297 299 300 296 295 296 294 293 294 292 290 292 291 291 289 291 291 289 286 291 289 291 290 290 293 290 289 292 291 291 290 292 289 287 292 294 297 298 300 301 302 306 308 310 314
319 319 319 319 319 318 318 318 319 319 318 317 317 316 317 318 318 318 318 318 319 320 321 320 315 305 298 294 295 298 305 307 306 305 305 304 303 302 302 302 303 299 299 300 299 301 295 296 296 296 294 292 289 290 292 290 288 290 289 287 288 287 287 290 288 288 291 292 287 290 287 285 286 291 290 287 287 289 294 294 294 297 298 298 299 305 309 310
318 318 319 318 318 318 318 317 318 317 316 316 316 317 317 317 317 318 318 318 320 321 321 320 311 304 294 290 299 306 304 307 305 305 305 306 304 305 302 302 301 300 303 300 299 297 297 295 297 294 294 293 292 297 293 288 287 291 287 286 284 287 285 288 289 289 292 290 287 290 287 284 283 287 289 287 287 292 293 292 291 291 292 294 296 299 305 308
318 318 318 318 317 317 317 317 317 316 315 315 316 317 317 317 317 317 318 319 320 320 319 314 303 296 292 292 299 306 319 305 304 305 304 304 302 303 303 303 302 301 301 302 301 298 297 299 298 293 294 292 293 291 286 283 283 281 287 285 283 284 285 285 288 286 291 292 287 289 285 287 287 287 285 289 287 288 291 290 290 288 289 290 292 294 297 303
318 318 318 317 317 317 317 317 316 315 315 316 316 316 316 316 317 318 319 318 320 321 315 307 304 294 290 290 302 317 305 302 303 304 304 304 303 304 301 300 301 299 300 300 299 298 297 299 294 291 292 292 290 288 285 286 283 281 284 281 285 283 282 285 290 285 288 290 290 289 286 283 290 290 286 286 287 289 290 289 290 290 289 289 291 293 295 296
317 318 317 317 317 317 317 316 316 316 315 316 317 316 316 316 317 319 319 319 314 315 309 303 299 296 291 298 304 301 299 302 304 305 304 304 304 301 301 300 300 298 299 299 298 300 297 294 292 292 288 289 285 288 286 281 281 287 281 282 281 282 282 284 286 288 288 290 290 288 288 285 288 288 286 287 290 290 290 291 290 290 290 290 290 291 292 294
318 317 317 316 316 316 316 316 316 315 315 316 315 316 313 317 318 319 314 311 309 310 306 304 297 294 292 298 294 297 301 302 305 302 303 302 299 300 299 298 298 297 298 298 297 296 295 292 290 290 287 287 288 286 285 282 286 283 284 282 283 282 280 282 286 288 289 288 289 287 287 290 291 292 292 291 288 289 291 292 292 292 291 291 291 291 291 293
318 317 316 316 316 315 315 315 314 314 315 316 316 318 319 319 312 306 302 299 294 293 292 293 291 285 285 291 297 301 303 304 302 303 303 304 301 299 299 298 298 299 294 291 293 295 292 292 292 289 286 285 287 288 285 284 285 286 286 285 280 283 283 283 282 283 288 288 288 285 288 288 289 291 293 292 289 290 291 289 290 290 291 291 291 292 292 293
317 316 316 316 315 315 314 314 314 314 316 312 312 310 300 296 297 297 300 297 290 290 291 295 292 291 295 295 299 303 304 304 301 300 304 302 301 300 297 297 297 293 292 292 293 293 290 288 286 286 288 289 288 287 286 284 286 285 282 281 282 281 283 282 284 287 285 288 287 286 285 285 288 291 292 293 291 289 289 291 292 292 292 292 293 293 294 293
317 316 316 316 315 314 313 313 314 315 316 309 310 296 288 291 288 287 293 294 293 293 293 295 294 295 297 299 300 299 300 297 299 300 303 305 300 301 295 295 293 291 288 288 292 292 291 287 286 286 287 289 286 284 286 285 284 286 283 283 282 284 284 285 288 286 285 289 285 281 284 287 288 290 291 291 289 290 291 291 291 292 292 292 292 293 293 295
317 316 316 315 314 314 313 313 315 315 315 310 308 292 291 291 294 296 295 289 293 295 294 295 295 299 299 300 300 298 297 295 299 300 303 303 300 297 292 292 289 291 289 289 290 291 289 287 288 287 285 284 283 284 284 285 284 282 284 282 284 283 282 285 285 285 285 288 284 282 286 289 290 291 292 290 291 292 291 291 293 292 293 293 292 292 293 293
316 316 316 315 314 313 313 314 314 315 310 307 303 300 296 301 303 301 296 291 290 295 295 295 296 296 298 299 300 300 294 292 294 298 300 301 298 295 293 291 288 288 289 290 289 286 286 286 286 285 286 287 283 284 286 284 282 282 282 283 283 283 286 285 285 286 286 286 287 285 285 288 288 286 287 289 289 289 288 288 289 290 292 294 294 293 293 293
316 316 315 314 314 314 314 314 315 312 308 306 301 299 301 301 303 301 293 290 289 294 296 295 296 295 296 298 301 295 293 292 295 296 301 299 296 295 293 288 288 288 289 286 288 289 285 287 286 285 286 289 285 284 286 285 284 283 284 282 282 284 283 282 285 284 282 284 283 283 285 286 281 283 283 285 283 283 285 284 286 288 290 291 291 291 292 292
316 315 315 314 313 314 313 315 309 307 308 306 302 302 300 302 302 296 291 288 287 292 298 297 298 297 299 304 301 297 292 294 297 297 299 298 292 293 292 289 290 287 287 284 286 286 285 287 285 287 286 285 286 284 284 286 282 286 283 284 284 284 284 283 284 283 279 285 282 282 283 278 279 281 282 284 283 287 286 287 290 288 287 286 288 289 290 291
315 315 314 314 314 314 316 307 306 306 305 303 302 302 303 302 301 295 291 284 282 286 294 291 299 295 304 298 298 295 295 292 295 296 301 297 298 294 292 289 289 288 285 286 288 284 284 286 285 287 287 285 286 286 284 286 283 284 287 284 283 284 284 283 283 283 280 281 284 280 282 277 280 283 286 283 282 287 288 286 287 287 287 286 287 288 288 289
315 314 315 314 314 315 307 299 306 306 300 301 306 303 302 302 301 297 289 280 280 289 288 295 294 294 300 297 297 294 287 287 299 297 297 300 297 297 293 288 288 287 287 287 287 285 285 285 285 286 285 285 284 284 285 286 285 286 284 282 284 285 286 284 283 283 281 281 285 280 279 279 280 285 283 280 283 286 286 287 287 287 287 287 288 288 288 289
314 315 315 315 315 315 305 303 304 302 299 301 302 304 302 301 297 294 286 274 274 292 288 288 294 298 299 295 295 289 290 294 292 295 297 298 297 292 289 287 289 289 287 287 283 286 286 285 284 285 284 283 286 284 285 286 286 285 283 284 284 285 283 282 282 280 280 282 282 279 283 281 278 282 282 281 287 285 287 286 286 288 288 289 289 291 292 291
314 315 315 315 316 314 307 305 304 301 301 300 302 304 303 298 293 289 281 275 286 285 299 290 302 299 293 294 292 289 292 292 288 292 295 296 296 294 288 286 287 286 286 287 285 286 287 287 286 288 287 286 284 284 283 287 286 284 283 283 282 281 281 281 279 282 279 278 274 280 280 277 279 280 281 280 284 284 285 284 285 287 288 289 289 291 291 291
315 315 315 315 315 312 310 308 303 303 301 302 302 300 297 294 291 284 277 273 290 283 290 293 293 290 290 290 289 288 291 290 291 293 293 292 293 291 290 289 289 289 287 287 286 286 288 289 289 287 287 285 285 285 284 285 286 285 284 287 284 281 280 278 278 277 276 273 275 277 277 279 277 281 282 285 285 282 283 284 285 285 287 288 288 288 289 290
315 315 314 315 309 311 310 303 305 304 304 302 298 297 294 289 282 278 273 282 289 288 288 289 287 291 290 288 287 287 289 287 293 292 290 292 290 289 289 291 289 285 285 283 284 285 287 287 288 286 285 284 286 286 286 284 284 285 284 281 285 282 279 278 274 275 273 268 270 276 277 277 276 277 283 281 282 282 287 290 289 287 288 289 289 289 289 288
315 315 315 314 313 314 306 301 306 305 304 300 298 295 291 280 281 278 276 290 283 285 285 284 285 288 290 288 286 287 289 289 288 289 290 286 286 287 287 286 287 281 281 282 282 284 286 287 285 289 288 287 286 288 285 287 283 284 283 286 280 274 271 276 268 275 272 270 279 277 276 277 278 281 285 284 285 284 282 285 287 286 287 288 289 289 289 288
315 315 315 315 313 311 310 307 307 305 302 299 296 289 285 278 273 281 279 284 281 286 285 288 285 288 288 288 286 287 288 288 289 288 287 287 287 287 286 287 286 285 281 282 283 282 284 283 286 289 289 289 289 287 283 284 283 283 286 281 277 272 268 268 262 262 267 272 276 278 277 277 279 281 286 288 290 285 284 284 286 286 287 288 288 288 288 288
316 316 313 314 313 312 311 308 307 304 301 296 294 286 280 272 275 290 282 280 284 284 285 284 286 287 290 287 287 288 286 286 288 288 288 286 286 285 287 286 285 284 283 281 283 282 277 279 285 288 286 289 288 287 289 286 285 285 282 285 282 272 268 267 265 272 272 272 273 274 274 273 277 286 285 285 286 285 284 283 283 284 284 285 286 286 286 286
316 315 315 314 312 310 308 306 306 305 299 295 290 285 278 277 276 281 281 281 281 283 285 288 288 287 285 284 288 289 286 285 287 288 286 286 284 284 286 287 285 282 284 285 282 281 282 279 284 286 286 287 289 288 286 286 285 282 280 282 280 278 276 270 266 265 264 269 270 273 276 277 282 284 285 285 284 285 284 284 283 286 286 285 285 287 287 286
314 313 315 310 311 311 308 307 305 302 297 293 287 279 279 280 273 281 283 285 284 284 284 287 286 285 282 284 286 287 290 286 287 286 285 286 285 286 286 287 287 287 287 284 282 279 279 281 284 284 285 287 288 286 288 288 285 284 283 278 281 280 279 270 267 269 269 268 272 268 277 281 280 284 288 281 283 286 285 284 284 285 285 284 286 286 286 286
310 312 308 310 311 311 308 307 306 301 295 292 285 281 282 281 282 282 291 286 285 288 286 283 283 283 283 283 285 286 287 289 286 284 283 285 285 285 286 287 288 287 288 287 283 283 282 280 283 285 287 288 286 286 286 284 286 284 279 282 282 281 281 278 273 265 262 268 271 271 275 278 275 280 282 281 285 285 283 284 282 282 283 288 288 286 285 287
308 308 308 309 311 310 309 308 306 300 293 288 283 287 285 285 288 290 291 285 286 286 284 284 284 286 283 284 283 286 286 287 285 284 283 285 283 288 285 287 287 290 289 286 287 285 285 279 283 283 285 287 285 288 288 287 285 283 281 285 284 278 277 277 273 268 267 265 265 269 272 272 277 280 280 284 283 286 287 285 285 289 289 289 286 285 285 284
303 304 300 305 310 310 309 308 304 297 291 286 284 283 286 287 288 288 288 288 288 285 285 283 283 285 285 284 285 286 288 284 285 284 283 283 282 285 290 288 287 288 288 286 285 283 284 279 280 285 285 286 286 286 284 284 285 284 285 284 284 279 275 274 276 271 273 267 263 268 267 277 278 279 279 284 281 280 281 284 285 285 286 285 285 286 288 290
301 299 296 307 310 312 310 308 301 295 289 283 284 277 284 287 289 289 290 289 287 284 284 284 284 283 284 284 287 286 286 286 286 285 285 285 285 287 287 289 288 287 287 287 286 287 284 282 275 283 285 285 284 284 284 285 282 281 281 281 284 279 282 280 277 275 275 265 263 265 269 272 277 279 281 285 282 279 280 286 286 286 285 284 283 288 291 291
301 298 297 309 309 308 310 304 296 290 287 284 283 283 284 286 288 290 289 288 290 291 287 285 286 284 283 283 284 286 285 284 286 285 284 285 286 283 287 289 289 288 287 287 288 286 283 282 279 281 282 283 282 284 283 285 287 286 285 283 286 280 278 276 276 275 267 272 267 263 273 273 280 280 285 285 284 283 283 283 284 283 284 285 289 287 286 292
298 291 295 308 310 308 306 295 292 290 284 283 285 285 286 294 287 288 288 289 288 288 289 286 284 284 283 286 286 286 285 284 284 285 284 284 287 287 289 288 289 290 290 286 286 286 285 281 283 277 282 285 286 285 283 284 285 285 284 284 286 283 280 274 273 273 269 271 269 265 268 276 282 281 282 282 281 281 281 282 283 286 288 288 289 289 288 287
295 293 303 305 309 308 302 293 293 290 285 285 291 291 292 290 287 287 288 289 289 288 285 284 287 286 284 286 286 286 287 284 285 285 284 285 285 287 286 287 287 290 292 285 287 285 289 281 278 278 279 281 284 284 284 284 286 286 285 281 283 283 282 279 272 274 278 271 272 268 267 277 281 281 281 280 280 280 281 280 281 286 288 286 287 292 293 292
296 296 298 305 307 305 298 288 287 289 287 289 288 289 291 290 287 287 287 288 288 288 287 285 287 289 285 284 285 286 287 283 285 286 283 284 287 286 285 288 288 290 290 288 289 289 284 282 283 273 273 276 279 283 282 283 285 281 281 282 283 280 279 277 276 274 273 275 275 275 272 276 281 282 281 284 282 284 285 284 280 285 290 290 290 289 288 287
295 295 296 299 304 302 293 294 291 289 289 289 287 287 288 288 291 290 289 290 289 287 288 288 288 288 286 286 286 286 286 286 282 285 285 285 288 285 286 285 289 288 288 288 292 292 285 281 282 277 275 274 271 271 277 281 283 281 279 281 282 284 280 281 278 274 274 272 276 272 277 280 284 281 284 284 284 286 286 284 283 282 288 290 290 289 287 286
291 284 292 295 298 297 296 296 293 292 290 288 286 286 286 287 290 291 290 290 290 289 289 289 286 287 284 286 286 286 286 285 285 284 285 285 286 287 287 284 287 286 288 292 292 290 281 281 284 284 282 280 282 281 283 285 282 282 281 283 283 284 283 283 279 274 279 276 275 278 282 282 283 285 285 286 285 286 288 288 289 288 287 286 285 285 285 286
292 286 286 285 293 293 291 295 292 293 290 292 285 288 286 287 288 290 293 289 291 290 289 289 288 287 286 285 284 284 285 285 285 284 283 284 285 284 284 287 287 289 292 291 290 286 281 282 284 283 283 284 281 281 282 287 284 284 282 282 283 283 283 283 282 281 283 276 274 281 283 281 283 281 284 284 285 283 284 286 288 288 289 289 288 285 287 286
287 288 290 292 288 284 285 288 293 291 292 293 287 290 287 288 288 287 290 291 291 292 288 289 289 289 289 287 286 282 285 285 285 283 283 284 285 287 287 288 289 289 289 288 287 287 283 282 284 283 283 282 280 281 282 285 285 285 285 284 282 283 282 282 283 286 283 281 281 284 282 282 285 285 287 286 287 289 289 290 289 289 286 285 285 286 287 288
290 287 288 291 287 287 289 291 293 292 291 292 289 290 288 289 287 288 288 288 290 290 289 284 288 287 288 287 286 283 285 283 281 283 282 282 284 282 283 287 289 285 287 286 287 282 286 279 281 282 283 282 281 281 282 284 282 282 284 284 285 284 283 285 285 286 285 284 285 285 282 284 288 286 288 289 288 288 286 286 286 286 287 286 285 286 287 286
286 287 285 288 288 287 289 291 291 290 287 292 287 289 290 289 288 289 290 289 286 288 291 286 287 287 287 287 285 286 286 285 285 284 284 286 283 282 285 284 285 285 285 286 286 287 286 280 284 280 278 278 280 280 280 282 282 282 281 283 284 285 285 285 286 286 285 284 285 284 282 283 288 285 286 289 286 286 287 286 288 288 287 288 288 287 287 288
289 289 290 287 285 286 288 291 290 288 286 287 287 288 290 291 290 291 289 292 290 288 289 289 288 288 288 287 286 287 289 288 288 290 288 290 287 287 286 285 288 287 285 285 285 286 285 278 279 276 277 275 278 280 279 278 279 280 280 281 282 282 281 283 283 285 283 283 285 284 283 284 288 287 290 288 286 288 289 290 289 289 289 288 288 288 288 289
288 289 289 287 283 289 287 289 290 288 284 288 288 288 289 290 291 293 289 292 292 294 293 292 291 291 287 288 288 290 291 291 291 291 292 291 290 288 289 289 290 288 284 284 282 282 281 282 280 276 275 274 275 276 278 278 278 276 279 283 283 284 285 284 285 284 286 288 284 281 284 290 288 286 288 286 286 288 288 289 290 290 290 288 289 290 290 289
Wind_Speed
17 18 16 14 16 16 15 16 15 13 13 13 13 13 13 13 13 12 12 11 11 11 12 12 11 10 10 11 12 11 8 4 3 2 4 8 5 4 4 5 9 8 6 4 4 5 1 1 2 4 2 3 2 2 1 3 2 2 3 5 1 2 3 7 7 10 1 3 3 4 6 6 2 0 0 1 5 2 1 1 2 0 5 3 3 3 6 3
18 18 16 16 16 15 15 15 14 13 13 13 13 13 13 13 13 12 11 11 12 11 12 12 12 11 11 11 10 10 8 4 3 4 13 0 4 6 6 6 7 8 5 4 6 5 6 1 1 2 2 1 2 0 0 0 2 4 2 3 3 5 4 7 5 6 2 1 4 3 2 3 4 6 3 2 1 1 1 2 2 2 4 2 3 3 5 8
19 18 17 17 16 16 15 15 14 13 13 13 13 13 13 11 10 10 10 10 11 12 12 12 11 10 10 9 8 10 5 1 3 13 11 10 6 7 7 6 7 8 4 3 4 8 8 9 5 4 3 4 6 2 2 0 2 1 5 2 2 8 2 5 4 6 2 4 6 5 2 2 0 3 1 1 2 1 5 4 1 3 7 7 1 4 9 9
19 17 17 18 18 17 15 14 13 14 13 12 13 13 12 9 10 9 10 10 10 10 10 10 10 10 8 8 8 5 1 3 7 4 2 7 12 10 8 6 5 5 3 2 4 5 5 8 5 3 2 5 3 2 1 1 1 1 3 4 1 4 2 0 6 3 3 1 5 4 2 1 1 3 2 3 4 3 6 8 8 10 11 8 5 9 9 10
19 19 18 17 17 15 15 15 14 13 14 13 12 12 8 10 10 10 10 10 10 10 10 10 9 9 7 7 6 4 6 3 6 1 3 3 8 9 8 6 5 3 2 7 8 5 6 6 4 3 3 1 2 2 1 1 0 4 0 1 4 3 2 0 3 1 2 1 8 4 8 6 2 1 2 8 6 6 7 6 10 8 5 11 11 13 10 11
19 18 18 17 15 14 14 13 13 13 13 13 12 10 11 10 10 9 9 9 9 9 10 10 9 8 7 7 3 3 5 6 1 1 5 1 5 7 6 6 5 5 8 5 4 4 7 2 5 3 1 2 2 6 1 0 2 4 1 1 2 1 3 0 1 1 4 3 6 7 3 4 4 1 1 5 9 3 5 1 4 5 6 5 7 12 11 12
19 18 17 16 16 13 13 13 14 13 12 12 11 12 11 10 10 10 9 9 8 9 9 9 9 8 8 8 3 1 7 5 1 2 4 3 3 6 7 6 6 7 5 5 5 4 2 5 4 4 5 4 1 2 1 1 2 4 3 2 1 2 3 1 0 1 1 7 5 2 1 3 4 4 1 3 8 3 1 3 4 3 6 9 12 14 17 17
19 17 15 14 15 13 15 14 13 12 12 11 11 11 10 9 9 9 7 8 8 8 8 9 9 8 9 3 4 1 1 6 1 2 3 5 6 7 8 4 4 4 4 8 7 4 5 8 7 3 4 7 4 6 2 4 3 2 2 2 2 1 1 1 2 4 2 1 1 3 5 1 3 2 1 7 9 6 4 3 4 6 7 7 9 14 13 13
18 17 16 14 13 13 12 13 13 13 12 12 12 10 8 8 8 7 7 6 8 8 8 9 9 8 5 1 4 5 7 2 2 1 1 5 5 5 2 3 1 4 3 3 1 7 8 4 3 5 4 2 2 6 2 6 3 1 2 4 3 2 1 1 5 4 3 2 2 5 0 2 3 2 3 10 5 4 5 2 5 6 6 8 10 14 14 15
17 17 17 16 15 12 9 10 13 12 12 13 12 9 7 7 7 7 7 8 7 7 8 7 8 9 4 3 3 6 2 2 1 1 4 6 6 5 3 1 5 5 5 2 3 5 4 6 8 5 10 4 3 3 1 0 2 4 5 4 6 1 1 4 4 2 1 2 1 3 0 0 1 1 6 1 1 7 2 3 1 6 8 8 8 10 11 13
16 17 16 16 15 13 11 10 11 11 14 14 12 9 8 7 8 8 7 8 8 7 7 7 7 7 3 1 7 7 2 5 2 1 5 6 7 5 3 3 4 4 4 2 4 6 3 8 4 5 1 3 4 1 1 1 4 5 10 6 8 3 6 1 5 4 1 2 3 2 1 0 2 1 6 1 6 3 3 2 2 4 5 7 6 8 7 7
17 15 14 15 15 15 12 11 7 12 14 13 11 8 8 7 8 7 7 7 7 7 8 7 7 3 2 3 4 4 4 2 2 2 4 5 4 3 3 5 4 5 7 5 4 3 3 7 7 2 3 3 3 2 1 1 2 3 2 4 2 4 2 7 2 2 1 0 1 0 1 2 1 6 4 4 6 3 2 1 3 5 4 3 4 5 6 8
17 16 15 15 15 16 14 11 10 14 13 11 10 6 6 8 7 7 7 5 5 7 7 9 5 1 3 2 5 4 1 2 3 6 5 2 4 3 3 2 2 3 3 5 4 3 4 8 6 8 1 5 5 2 4 6 1 2 8 5 3 2 2 3 1 3 2 0 2 0 3 7 9 11 8 5 7 3 1 3 3 4 5 5 5 6 7 6
17 16 16 15 16 15 15 14 13 14 12 11 10 7 7 6 6 5 5 5 5 8 8 8 5 2 2 2 3 2 1 3 4 4 2 0 4 1 2 4 3 2 1 5 3 3 5 1 8 8 2 5 3 1 6 2 5 6 1 5 2 4 3 2 1 3 5 2 3 1 3 6 6 2 2 4 3 0 2 4 5 4 5 6 6 6 8 9
17 16 16 16 15 15 14 15 14 13 12 11 9 8 8 5 4 4 3 4 6 7 10 6 2 4 3 2 2 3 5 3 3 1 2 4 3 2 1 2 6 5 3 5 4 1 3 6 8 4 2 1 4 5 3 3 5 3 6 1 2 4 3 5 2 2 4 1 4 5 1 8 9 9 6 3 3 2 4 5 5 5 5 6 6 7 8 10
17 16 17 16 15 15 14 13 13 12 11 10 10 8 6 2 1 2 3 4 7 9 4 3 1 3 5 1 1 3 2 3 3 1 1 3 3 2 3 5 1 3 3 4 2 3 5 7 8 3 4 3 6 8 5 4 2 5 2 1 3 1 3 3 1 2 2 1 4 2 5 4 3 3 4 3 5 2 2 6 6 6 6 7 7 8 8 8
17 15 15 16 14 14 14 12 10 11 11 10 10 9 6 4 3 5 3 6 4 3 1 3 3 0 3 1 2 1 2 2 1 1 0 1 2 7 5 3 2 4 5 3 4 3 7 6 3 2 5 6 2 6 8 2 1 2 3 3 3 4 2 2 3 1 3 2 3 3 1 6 4 8 7 5 0 1 3 6 7 7 7 7 6 7 8 9
16 16 17 14 15 15 13 11 10 12 12 9 7 8 3 6 6 7 5 4 2 2 2 1 3 2 4 1 3 4 0 3 1 3 2 1 4 4 3 3 1 5 4 4 4 3 3 2 2 5 2 2 2 4 8 9 11 8 3 4 0 0 2 2 2 1 1 2 3 1 2 11 12 10 11 7 1 2 6 7 7 8 7 7 7 7 9 9
17 16 15 16 15 14 13 12 14 13 13 11 9 8 7 7 2 1 4 1 3 3 2 3 5 5 4 8 1 3 1 2 3 2 2 2 2 3 4 4 5 8 3 3 1 2 2 5 4 5 6 3 7 7 7 4 7 10 9 6 5 6 4 2 5 3 0 1 2 3 7 7 9 10 12 5 1 3 7 5 7 8 8 8 8 8 7 9
19 18 17 17 15 14 13 14 15 15 15 9 6 5 3 4 1 2 1 2 0 1 1 7 4 2 1 3 5 1 0 1 5 4 1 1 3 3 5 1 3 6 5 5 1 2 1 6 7 9 9 10 6 5 5 3 7 6 5 5 4 4 1 2 2 1 1 2 3 4 5 6 11 12 12 12 1 4 7 10 9 9 8 8 8 8 9 9
20 19 18 15 15 16 15 15 15 15 13 3 5 4 5 8 11 4 3 2 1 0 1 1 3 2 1 1 0 5 7 1 2 1 0 1 1 7 1 2 2 3 1 1 5 0 3 6 8 5 6 7 7 8 10 9 5 7 6 5 1 1 2 1 1 2 3 1 1 1 2 9 12 11 12 7 1 9 11 10 10 11 10 8 8 10 10 12
20 19 17 18 17 17 15 16 15 14 9 3 1 2 0 2 1 2 5 3 1 1 2 1 0 3 1 1 1 2 4 4 3 1 1 1 1 6 2 4 4 8 0 3 3 3 3 8 6 6 4 9 6 4 4 7 6 4 6 4 3 3 2 1 0 1 3 1 4 1 2 9 11 11 11 8 9 8 6 7 7 6 9 8 7 9 10 7
19 19 18 19 17 16 16 16 14 12 5 4 5 1 2 1 1 4 3 5 3 1 1 2 3 2 1 3 1 0 3 3 5 2 1 1 2 1 6 4 4 5 1 3 9 5 3 4 6 4 7 10 4 4 10 8 7 7 6 4 5 3 4 2 2 0 3 2 2 1 4 10 7 6 11 11 6 7 6 7 10 7 10 12 10 5 6 9
20 19 19 18 16 16 17 16 15 8 3 5 2 5 1 1 1 0 2 3 3 0 1 0 1 3 3 4 3 3 4 1 4 6 2 2 6 2 6 4 6 4 8 5 8 10 6 1 1 8 4 10 7 2 8 6 3 2 3 4 5 3 2 2 3 1 1 1 2 0 2 8 4 5 5 1 4 4 5 6 7 8 8 10 10 10 9 13
19 18 18 17 15 18 16 16 8 4 5 1 5 5 3 2 2 1 5 2 3 1 0 1 2 0 2 1 1 1 1 3 0 0 1 4 3 3 3 1 4 4 4 4 5 5 1 1 3 6 4 4 7 3 4 9 3 1 4 5 5 5 8 0 1 4 3 1 5 3 3 3 4 7 9 8 8 8 3 5 9 5 6 5 8 10 7 8
18 17 17 18 18 18 19 9 4 5 8 8 5 3 4 3 1 2 6 3 2 1 2 4 0 3 1 0 2 2 4 2 1 1 1 2 3 3 1 2 1 8 3 6 7 3 2 0 2 7 7 5 6 6 5 4 6 4 3 3 3 8 8 7 5 3 1 2 2 2 2 5 6 4 5 4 8 11 7 4 8 8 7 5 7 7 8 8
17 18 18 20 21 21 12 4 5 10 6 6 7 3 4 3 3 1 3 4 2 4 5 1 1 1 1 0 2 4 6 4 0 1 1 3 1 1 6 3 2 4 2 2 3 2 2 1 5 4 5 5 5 4 4 7 9 4 1 5 8 9 8 6 6 2 1 1 1 5 3 1 6 8 5 6 6 9 10 7 7 5 6 6 6 6 7 7
20 19 20 23 21 17 1 6 12 9 6 2 3 7 5 4 1 2 4 4 3 3 3 2 1 2 1 0 5 2 1 2 5 3 0 2 1 3 3 6 6 8 2 4 8 1 4 5 4 5 2 4 7 3 2 4 6 1 1 4 5 6 5 6 6 5 0 1 4 3 3 0 5 8 4 3 2 6 8 7 6 6 6 6 6 5 5 6
19 20 21 20 20 14 6 7 9 11 4 2 4 6 4 4 2 6 4 3 0 3 4 4 3 1 2 1 4 2 1 3 2 1 2 1 4 2 2 4 6 7 4 1 6 1 2 4 5 6 8 7 2 0 1 4 4 1 6 8 8 8 7 5 4 5 1 2 4 2 3 2 8 7 5 4 1 8 8 5 6 5 5 6 6 6 6 5
21 22 21 20 14 6 4 2 6 1 3 5 5 6 4 3 3 2 3 6 3 2 1 1 2 5 2 6 1 4 2 2 2 0 2 3 2 6 3 4 5 5 3 6 7 3 1 3 4 3 3 2 6 2 1 2 4 10 4 9 7 9 5 4 7 3 3 1 5 3 5 1 4 5 6 3 4 4 2 4 4 6 4 4 4 4 5 6
22 23 20 20 11 6 4 4 7 2 4 5 5 6 5 7 5 5 5 5 4 1 2 1 2 3 9 11 5 2 4 1 0 2 3 1 3 4 3 4 4 6 5 5 4 4 1 1 1 0 2 4 3 6 5 4 6 5 4 5 7 5 6 4 5 5 1 4 3 2 2 1 6 5 4 8 4 4 2 1 2 3 5 5 5 6 6 6
19 20 21 14 5 6 7 3 4 5 5 6 6 6 6 4 2 9 5 1 4 5 5 5 1 5 12 3 5 5 6 2 0 3 8 5 6 8 6 8 5 6 2 4 2 1 3 3 1 3 3 5 4 11 4 1 3 5 7 7 7 1 4 2 3 2 4 4 1 3 1 2 8 10 4 5 9 6 7 7 5 4 7 7 6 8 8 6
18 17 17 10 5 5 3 0 5 6 5 5 6 4 5 6 8 9 3 7 2 5 6 4 7 7 6 7 5 2 1 7 2 1 3 0 6 2 0 2 5 6 8 5 5 2 2 1 2 1 2 3 3 12 2 1 1 4 9 8 6 2 2 2 2 1 5 5 4 1 1 3 4 9 12 16 12 4 7 9 8 6 7 8 7 10 10 8
18 18 12 9 6 4 2 5 5 7 7 4 8 6 6 5 9 4 6 4 2 2 5 3 4 4 13 9 7 7 4 2 4 2 2 5 6 6 4 1 4 2 7 2 6 6 4 3 5 5 2 2 1 3 9 7 9 5 1 7 8 8 6 4 3 4 4 4 3 3 1 6 3 1 0 7 7 4 5 5 5 7 8 8 7 10 9 7
18 13 9 7 4 1 5 5 6 7 5 7 7 8 11 13 2 11 8 4 2 1 3 3 10 10 2 3 1 1 3 2 1 5 1 7 8 6 11 9 3 5 3 10 3 2 5 3 2 3 2 0 7 1 3 6 6 0 2 4 6 6 6 3 3 3 1 0 1 1 5 4 4 2 8 5 6 7 4 6 3 8 4 2 4 6 6 6
14 9 9 6 7 4 5 5 4 4 6 9 9 8 15 7 3 3 6 4 2 5 5 6 4 6 1 3 1 3 2 4 4 4 3 6 2 8 3 2 8 9 10 9 5 4 3 4 2 7 3 2 0 0 1 1 7 4 4 3 3 2 11 7 2 1 1 4 5 1 8 7 9 8 9 3 3 7 2 3 3 6 3 2 3 4 5 5
9 10 8 7 5 6 6 5 4 4 4 9 9 14 4 1 1 4 3 7 6 14 8 11 5 7 7 6 6 7 3 5 3 4 5 2 3 5 4 5 2 4 4 9 1 3 10 3 3 3 1 1 0 1 2 5 1 9 2 7 2 2 6 5 3 2 4 3 7 2 8 6 3 6 5 5 4 7 2 5 4 5 2 1 1 5 5 5
8 5 3 7 5 6 5 6 6 4 4 7 14 5 1 4 1 2 0 5 5 2 6 6 1 5 8 9 6 8 3 7 8 2 5 6 3 5 6 3 4 9 7 2 5 4 7 4 0 1 0 4 1 0 5 2 3 3 3 5 5 2 1 2 5 1 1 2 5 4 3 6 6 7 5 1 4 8 8 5 2 2 1 3 3 4 3 3
3 5 6 3 2 6 5 5 4 7 6 8 11 6 1 1 1 3 3 3 2 5 8 4 5 4 5 10 7 7 10 8 7 6 7 4 4 4 12 6 3 2 5 5 3 2 1 5 1 1 2 1 2 2 9 2 4 3 3 4 0 3 2 4 6 3 5 4 2 7 3 6 7 7 8 6 5 6 4 2 6 7 5 4 1 1 1 1
6 4 3 2 2 4 6 5 6 4 5 14 10 1 2 3 1 1 1 3 2 3 4 5 1 6 3 2 8 10 7 6 12 8 5 3 7 1 6 2 7 4 6 0 2 3 3 1 5 1 2 1 3 4 9 10 10 3 2 2 1 2 2 5 2 3 4 5 5 2 6 4 7 7 6 9 6 4 4 2 1 4 6 4 3 2 1 1
1 2 2 1 4 3 6 5 7 11 10 2 3 3 1 3 2 0 1 3 3 3 3 4 7 6 6 6 2 1 4 5 7 6 4 3 9 4 6 7 7 8 3 3 4 3 4 1 7 2 2 5 5 1 1 5 4 8 11 11 11 9 5 4 6 3 2 3 4 4 9 5 10 4 9 9 5 3 4 3 3 4 2 1 1 2 3 3
4 6 3 1 2 4 10 10 5 1 2 6 8 4 2 2 3 2 2 0 4 2 2 6 2 4 3 4 3 8 6 4 4 5 4 7 5 1 1 3 6 12 12 8 9 2 4 4 9 4 6 4 1 1 1 1 0 2 2 6 6 2 6 5 6 4 3 0 5 2 0 9 7 3 5 3 3 4 4 2 2 1 0 1 2 2 2 2
2 4 1 2 2 7 9 7 1 3 2 2 3 3 2 2 3 3 3 0 1 1 2 2 4 4 2 2 2 4 9 5 9 10 4 3 1 1 3 3 6 9 6 1 5 3 5 5 5 1 2 2 2 1 2 0 0 1 2 2 4 7 5 6 2 7 8 3 2 1 1 9 5 1 3 4 5 6 5 4 2 0 1 2 3 1 1 1
2 4 2 1 1 2 8 13 12 12 2 1 2 2 2 3 3 4 1 2 3 1 3 3 1 1 3 1 3 8 7 4 2 3 0 2 3 3 4 3 7 9 8 8 10 9 5 4 9 3 2 3 3 2 2 2 1 3 3 3 2 4 5 2 5 1 2 9 9 9 7 6 3 3 2 0 2 2 2 3 6 2 2 3 4 4 2 1
3 1 3 1 2 1 7 2 8 7 4 7 4 6 2 2 2 2 5 5 1 4 3 1 1 4 3 2 2 2 1 1 3 2 3 1 1 2 4 5 3 2 2 3 2 7 3 4 8 8 10 9 6 5 10 12 11 3 1 3 5 10 8 5 4 1 4 3 8 5 8 4 3 4 2 2 2 2 1 3 3 4 3 4 4 4 3 2
2 4 1 1 2 2 2 2 3 9 9 7 6 3 3 3 1 2 4 2 3 2 1 4 1 4 4 3 3 3 6 2 2 4 5 2 0 1 1 5 3 0 2 3 2 7 3 1 5 9 13 14 14 5 2 10 6 6 5 9 6 5 6 5 5 5 11 4 7 8 10 4 1 3 2 4 1 4 4 4 6 5 6 6 4 5 4 3
1 2 3 5 4 2 3 2 4 7 11 10 8 4 6 5 3 1 1 1 4 3 2 1 3 5 1 4 4 4 1 3 2 4 1 5 0 1 4 2 3 4 4 1 2 5 3 3 7 7 7 6 2 3 5 8 10 7 9 9 8 9 9 9 10 13 6 10 8 10 8 7 10 4 6 6 6 5 5 5 4 5 6 7 5 4 5 4
2 1 1 0 3 6 5 5 5 5 2 10 3 4 6 8 4 6 2 2 1 1 5 1 1 0 11 12 7 5 4 3 2 4 1 1 3 1 2 3 2 4 2 1 1 3 5 7 4 5 8 3 2 4 6 6 8 10 13 12 12 13 10 13 15 17 8 10 16 9 8 10 12 10 10 10 9 9 11 10 5 3 2 3 3 4 5 5
1 1 0 3 1 1 2 5 6 4 3 8 2 8 8 11 10 3 4 2 1 2 2 4 6 4 6 2 5 4 8 6 4 0 3 3 3 3 2 2 0 3 1 1 1 1 4 4 3 4 7 3 2 3 2 7 2 3 9 12 15 15 17 19 18 17 13 12 13 8 10 16 15 7 13 10 8 8 3 1 0 2 5 4 4 7 8 7
1 2 1 2 3 2 3 7 8 8 7 5 7 8 9 11 11 3 1 5 5 4 1 2 6 4 5 5 3 8 7 3 8 7 5 7 1 1 4 4 4 2 1 4 3 2 4 3 6 2 3 4 3 1 2 3 4 5 4 8 10 14 17 20 18 15 10 9 9 8 5 12 10 7 7 8 5 3 0 3 5 8 6 7 9 8 5 6
1 0 0 5 3 1 1 6 7 9 5 3 3 4 5 11 12 8 2 1 4 7 5 7 7 4 1 4 3 2 4 4 7 9 12 10 10 8 5 4 6 7 4 3 1 1 2 2 2 2 4 3 1 4 2 4 2 1 2 6 11 13 12 11 11 7 6 11 13 10 11 16 9 12 10 7 4 6 9 10 9 8 10 10 9 9 7 7
0 0 1 2 3 2 4 4 6 6 6 7 5 4 4 8 4 8 3 1 2 4 8 10 9 9 3 4 8 8 7 4 4 5 8 2 4 4 1 4 9 9 6 4 0 5 4 6 5 3 4 3 3 1 6 5 2 3 9 14 19 14 10 4 5 5 11 14 11 9 16 17 6 8 7 4 7 11 10 9 10 10 9 9 11 12 10 7
Wind_Direction
175 178 177 182 185 184 185 181 178 174 182 182 188 190 190 192 191 193 192 193 189 183 179 176 175 173 182 192 204 212 203 204 190 205 205 236 198 177 154 116 135 140 145 98 86 112 47 28 128 340 58 54 314 77 274 55 44 54 73 116 82 200 145 201 179 189 204 117 209 177 210 135 191 156 180 108 38 54 345 210 303 335 250 216 262 296 283 203
174 180 173 177 184 179 181 176 171 180 183 186 188 189 191 192 192 194 193 196 198 189 179 178 180 172 180 192 196 198 183 201 243 251 228 185 191 157 143 148 142 153 128 115 152 149 128 235 227 50 82 78 334 34 359 349 66 89 140 89 207 182 235 162 195 194 119 248 153 184 188 180 205 145 207 126 272 6 132 274 20 329 299 300 340 267 198 165
174 178 171 173 183 171 170 170 171 176 179 187 188 188 192 191 192 193 195 196 197 196 183 178 177 172 175 185 190 206 194 35 349 260 255 204 168 162 159 150 161 165 166 159 205 151 160 186 175 110 12 104 2 154 60 18 63 216 115 147 250 206 215 204 171 191 224 137 129 140 190 149 198 151 111 219 162 60 193 203 308 247 249 220 292 145 167 165
167 170 170 165 171 171 167 170 170 176 181 184 186 187 188 183 189 194 195 197 196 197 186 178 174 167 172 170 193 216 134 40 264 250 272 225 163 164 159 162 169 153 95 54 152 132 106 88 86 103 68 72 308 25 117 298 143 216 81 158 220 184 111 211 186 241 216 132 139 134 106 166 244 203 160 173 116 263 266 235 183 206 220 198 181 172 167 168
164 167 172 164 163 168 168 170 172 179 182 182 183 183 179 188 189 195 195 193 195 194 183 174 168 162 170 165 192 209 100 44 263 229 293 234 152 154 153 155 144 123 128 138 86 69 117 130 108 40 89 163 354 31 6 336 127 96 86 180 152 147 68 241 203 291 145 78 114 131 133 211 103 92 132 157 177 224 214 237 214 213 191 163 171 178 169 172
160 167 168 158 153 163 171 167 173 180 182 179 176 176 185 184 181 190 192 191 192 191 183 168 160 160 161 155 141 229 110 196 250 310 320 317 147 140 134 132 140 120 121 102 112 134 117 82 120 143 33 86 173 142 226 204 334 150 321 69 166 189 117 273 330 247 136 121 138 148 201 105 144 178 198 184 208 229 234 258 227 227 172 156 149 160 172 176
156 162 160 151 149 159 169 167 175 177 180 178 174 178 172 172 182 185 187 189 187 186 175 160 150 155 163 133 194 163 181 249 26 277 346 78 131 126 110 109 122 120 123 103 127 137 146 128 110 167 100 70 305 132 201 198 16 105 173 141 151 191 73 239 252 144 111 136 178 202 79 135 139 200 106 224 240 192 141 271 254 224 130 145 152 177 177 185
154 155 155 150 146 158 172 170 179 173 176 177 170 168 166 169 171 179 182 186 185 181 168 154 153 154 144 144 125 172 197 251 210 289 327 88 61 91 97 64 108 122 134 161 156 142 143 145 163 150 79 146 205 130 195 91 15 106 108 206 157 111 34 24 107 98 135 104 323 113 140 307 188 173 86 248 247 266 295 7 87 110 136 157 167 179 192 194
156 153 152 147 144 157 169 175 176 170 174 172 159 166 167 169 177 180 183 191 185 176 164 151 151 161 164 87 121 118 234 238 194 321 106 95 99 89 79 126 116 145 155 115 182 165 139 234 116 191 201 139 149 100 224 134 292 150 140 123 133 82 348 103 76 62 55 117 68 101 23 331 242 289 248 248 282 299 286 98 119 113 146 177 186 186 189 195
154 153 152 150 151 154 165 176 171 171 169 168 160 156 170 183 187 194 193 193 183 168 160 149 148 144 124 104 90 194 250 147 269 51 124 123 107 111 20 121 124 126 127 188 94 136 176 199 168 184 123 72 116 118 300 18 211 129 104 96 102 328 94 16 119 19 343 97 313 143 253 84 326 59 275 329 258 324 89 76 41 153 182 196 192 198 202 199
154 154 153 153 153 148 148 162 169 175 168 167 158 159 177 187 196 197 197 195 176 166 152 151 149 157 124 123 150 211 175 114 201 118 125 134 112 127 212 173 169 143 130 173 202 191 185 153 152 105 17 206 107 25 71 186 122 92 136 110 50 9 77 53 79 31 327 40 35 136 155 318 323 103 230 239 337 313 150 119 195 211 208 202 207 208 213 224
155 154 153 153 151 141 144 143 156 170 164 156 146 152 177 190 202 194 198 190 174 155 148 144 151 146 96 101 147 202 181 212 126 116 129 135 128 215 210 169 162 158 152 175 233 230 168 155 131 90 170 143 91 126 77 132 66 161 178 103 317 21 55 10 87 343 9 103 56 175 77 303 147 226 255 266 316 18 120 183 238 237 250 257 241 232 224 223
156 156 153 151 147 142 136 137 154 167 156 139 127 172 189 187 186 187 187 182 170 149 139 127 110 74 106 100 240 224 190 153 121 112 76 74 107 67 92 123 154 150 169 150 202 200 155 144 123 83 10 94 151 137 163 78 360 121 40 114 49 18 15 353 305 347 94 250 33 206 267 265 259 254 274 306 330 346 129 243 246 253 267 272 263 242 248 239
155 156 155 151 145 144 141 145 146 145 136 131 153 184 174 163 183 184 183 167 143 140 133 137 111 108 103 233 258 240 183 120 112 94 80 235 92 51 48 38 75 68 15 106 77 108 112 87 90 115 122 98 138 216 82 358 12 123 224 50 122 122 243 325 23 308 128 300 30 102 198 284 282 272 289 326 323 305 274 256 269 261 268 256 252 251 246 245
155 156 155 153 151 147 147 150 156 146 135 146 174 166 155 171 183 182 181 162 157 143 126 99 65 98 95 263 296 305 139 120 122 180 176 139 125 68 50 52 53 47 86 104 125 81 115 106 88 52 83 291 111 83 40 46 17 28 86 267 336 158 263 302 41 14 154 16 52 92 312 246 260 264 282 317 358 158 242 279 284 280 263 256 248 247 246 245
153 154 155 156 153 152 150 152 159 149 140 167 160 128 119 133 221 235 195 173 134 124 158 113 88 116 103 264 194 109 103 137 198 208 275 153 159 142 162 121 122 29 56 38 58 88 43 78 74 174 119 34 67 105 76 64 346 359 98 211 180 97 236 344 14 43 22 116 12 147 216 326 320 260 286 315 63 87 253 289 284 279 260 250 244 237 242 261
151 147 147 149 150 151 149 154 166 152 158 166 134 125 129 176 213 228 174 107 94 103 146 154 128 118 143 275 104 152 206 223 23 63 126 23 152 151 109 63 54 70 59 74 25 53 360 63 286 46 25 127 163 107 96 15 328 246 20 137 212 160 208 247 306 328 12 107 195 22 198 231 246 283 286 294 267 353 298 273 280 270 264 255 256 249 248 245
146 146 151 144 147 149 152 157 153 151 168 157 125 134 144 174 181 129 89 69 71 116 116 119 121 107 264 125 193 211 143 134 146 165 59 309 118 95 97 105 51 97 88 82 358 78 334 66 27 171 29 47 127 97 138 198 182 190 150 87 126 13 201 216 141 230 33 39 169 346 261 268 271 283 281 273 239 195 245 248 262 272 268 267 250 249 244 246
143 144 144 148 149 151 156 151 159 165 166 162 144 133 120 90 80 165 102 46 106 84 121 192 140 145 203 204 143 74 148 168 103 72 154 114 35 105 64 79 100 117 99 87 257 113 348 75 44 85 151 145 201 177 162 202 146 166 169 174 144 152 214 207 245 277 181 145 217 204 224 267 287 287 289 288 214 224 263 281 274 266 259 258 249 249 247 242
144 145 149 152 154 153 153 160 168 167 167 161 149 128 75 89 100 125 5 30 87 174 233 168 138 163 60 9 131 158 355 113 126 341 59 305 126 78 38 70 34 58 113 162 162 91 113 135 171 185 188 188 182 157 161 165 135 111 74 94 156 152 256 273 286 287 305 101 245 226 266 272 273 269 274 281 299 272 278 272 265 265 265 256 251 241 242 242
146 149 153 154 149 153 162 167 171 170 166 126 174 151 156 183 137 176 163 250 173 133 14 311 152 145 98 134 304 146 123 359 62 68 215 107 242 123 243 42 79 94 11 164 136 227 68 145 220 208 197 178 149 127 107 73 61 134 135 137 176 185 124 212 136 349 322 151 289 62 316 271 261 272 267 276 339 269 247 252 260 259 252 250 245 255 247 246
147 151 157 154 151 152 164 171 171 174 135 100 198 184 176 213 212 245 120 147 232 142 62 174 108 61 333 187 283 128 67 91 84 32 323 137 180 148 269 106 142 160 155 115 55 105 158 195 223 210 128 93 89 88 67 117 112 55 141 156 115 250 235 308 340 343 337 98 263 36 322 271 266 258 266 253 241 244 235 219 238 239 265 261 244 245 263 288
150 158 159 158 155 163 167 168 171 156 125 157 203 226 217 220 284 246 112 81 80 317 71 109 131 100 28 316 281 350 87 131 169 248 235 38 139 143 139 115 118 132 87 172 158 138 179 283 243 154 149 110 54 79 98 77 67 112 100 112 194 228 132 224 273 343 3 86 315 250 297 280 284 279 260 266 242 263 267 261 261 243 255 257 259 264 273 273
157 157 160 162 162 163 161 164 159 132 185 200 243 210 242 89 156 57 59 150 154 307 68 257 143 155 164 148 212 106 114 212 122 191 331 118 147 204 107 138 124 121 179 177 156 162 185 253 31 142 163 133 124 120 117 110 119 347 130 133 133 158 224 144 183 119 342 28 58 59 282 299 328 330 326 329 335 309 292 327 276 260 245 266 285 281 247 258
162 160 163 160 157 158 162 148 148 183 96 106 279 249 228 202 124 133 93 47 24 10 142 21 117 251 188 62 17 139 196 85 21 248 280 125 142 100 157 175 111 186 147 152 96 109 260 327 148 121 120 98 113 124 166 127 71 61 231 171 190 170 131 256 73 114 24 321 7 45 341 310 305 284 244 288 345 326 300 329 281 301 292 283 271 268 281 261
160 159 159 153 158 159 151 150 190 116 143 198 213 238 177 184 189 121 97 71 183 253 34 183 162 188 137 91 26 135 115 125 271 233 97 222 181 135 116 65 89 192 165 143 156 165 191 16 134 161 148 144 143 165 211 135 151 116 232 151 139 140 124 127 134 80 77 145 354 6 168 267 324 310 285 333 326 297 305 265 287 301 296 291 271 280 282 284
157 162 157 158 162 156 149 206 132 117 134 255 233 189 187 158 215 133 64 9 307 180 154 292 73 182 56 222 137 120 134 233 16 27 51 330 129 321 131 190 38 35 155 169 60 241 99 103 77 84 105 121 131 186 220 145 125 194 300 122 113 115 130 158 114 105 169 255 274 46 87 206 306 287 271 314 319 295 308 313 314 304 302 301 291 280 276 277
166 163 160 162 166 168 74 117 141 171 202 218 139 152 170 182 173 49 79 108 244 131 126 246 243 340 92 284 59 125 210 168 104 224 311 290 113 20 91 198 155 158 174 108 184 283 123 168 154 134 87 121 178 210 187 137 126 215 225 131 115 124 126 110 88 99 100 37 274 342 346 351 258 267 313 360 339 311 289 306 300 307 309 307 310 304 291 278
169 164 161 164 168 163 108 144 171 184 213 140 145 121 136 126 92 120 123 148 242 81 278 96 279 62 18 21 49 26 71 18 125 218 316 10 21 167 96 193 122 111 35 149 169 217 336 164 208 152 142 182 220 287 220 122 88 262 133 96 98 86 71 84 98 76 353 71 270 220 8 200 278 276 326 335 273 270 266 275 279 272 284 298 306 315 316 322
167 160 161 163 159 144 153 57 204 244 124 138 141 126 97 103 105 116 115 226 122 196 93 170 140 196 118 134 31 1 109 342 81 328 28 140 338 40 22 146 118 90 57 28 76 181 245 321 193 84 181 167 131 49 124 27 113 134 123 83 50 42 35 35 60 84 63 346 253 264 307 175 300 269 230 135 211 202 240 297 280 290 296 292 270 274 314 332
165 162 165 167 172 155 114 174 224 179 172 137 137 120 95 46 137 103 183 220 62 59 34 170 168 80 138 144 150 319 81 338 78 141 108 334 27 45 144 56 46 57 60 24 38 334 24 360 45 299 62 105 101 81 30 78 102 122 103 130 85 8 13 31 348 32 119 265 261 280 298 313 178 290 291 238 281 224 206 213 277 294 300 301 317 327 332 339
167 167 168 170 140 141 176 208 189 146 170 157 129 122 121 112 4 186 195 74 154 189 162 182 299 153 174 139 102 149 138 46 344 156 149 175 148 147 200 145 163 91 166 166 169 358 47 84 222 9 213 115 128 91 355 350 355 89 99 90 112 219 36 270 14 248 203 197 244 336 223 347 240 234 254 289 261 250 217 215 235 251 286 300 317 332 328 321
166 167 163 174 131 175 245 176 142 154 140 149 99 71 107 126 196 203 124 184 255 141 220 105 172 167 146 120 156 150 7 146 227 115 103 33 130 233 138 163 178 136 180 210 107 99 275 277 9 355 37 217 154 122 151 136 321 117 136 143 111 116 72 220 275 279 312 291 270 309 263 266 252 277 248 245 252 204 221 224 235 237 256 281 303 321 317 313
169 167 169 169 167 183 133 143 165 148 140 123 121 74 55 156 221 113 154 210 159 352 82 114 91 91 155 164 189 173 110 319 155 173 116 159 138 174 233 312 131 65 78 146 143 192 127 288 251 152 193 161 89 162 172 151 155 203 36 140 173 141 155 198 193 192 212 201 281 279 63 233 113 250 221 220 253 277 277 264 263 261 261 275 301 288 287 302
175 165 155 149 152 143 159 167 163 169 128 127 114 168 171 209 107 163 178 178 245 67 73 147 126 139 175 25 119 234 136 131 189 122 169 143 190 185 182 196 223 115 134 128 254 93 201 194 287 315 270 310 162 255 112 104 49 8 170 79 96 212 135 127 205 139 168 359 10 242 218 192 180 288 280 247 285 284 276 280 314 283 275 323 313 296 302 305
169 168 155 149 176 176 158 167 164 154 155 134 150 184 206 183 185 185 187 139 118 123 121 71 84 132 98 85 319 199 342 113 213 121 205 195 214 188 200 168 180 192 157 165 177 158 29 226 343 307 37 67 136 198 345 139 172 217 98 189 205 100 99 104 65 26 85 47 259 161 314 288 298 319 279 342 312 282 318 298 299 273 297 359 294 292 286 296
164 145 166 153 167 159 160 153 144 123 135 166 165 205 188 37 184 155 122 146 185 134 141 134 235 139 171 191 173 194 210 81 166 130 207 153 270 197 192 225 154 177 231 127 212 213 148 209 357 53 107 350 224 143 108 39 138 97 174 221 179 149 127 124 176 350 65 170 265 89 230 291 29 280 330 338 287 278 271 251 259 282 329 293 285 282 287 312
133 133 107 141 149 151 144 154 123 93 103 153 205 167 337 115 233 105 264 103 103 122 128 159 220 94 186 153 200 173 221 153 190 158 179 187 231 181 165 167 213 189 181 276 133 217 120 80 339 347 228 287 4 327 52 35 49 137 199 177 111 196 201 325 92 214 146 263 270 296 282 263 192 241 332 321 202 250 247 248 285 268 222 231 268 286 306 316
92 128 148 151 144 153 148 144 92 139 148 188 211 162 230 77 104 174 214 154 109 134 158 213 132 229 151 181 170 171 163 181 160 191 147 239 195 208 185 153 195 222 158 147 95 143 56 136 291 332 139 268 355 106 186 196 347 29 89 81 329 102 153 127 196 175 124 238 66 290 42 247 199 220 203 233 227 231 262 258 227 229 219 212 256 279 294 354
138 129 161 148 160 156 148 122 102 124 168 205 186 204 192 108 188 213 224 169 159 117 207 154 247 124 167 206 159 161 208 173 167 193 192 191 188 295 194 248 159 187 144 70 131 165 153 114 154 282 292 89 177 199 212 163 147 77 89 175 91 33 226 103 27 122 180 171 182 215 317 277 255 215 195 221 218 218 176 185 289 245 239 232 225 221 174 180
27 80 92 104 143 168 131 106 140 188 199 353 87 156 120 164 177 54 131 143 109 334 147 147 159 157 175 120 201 112 144 149 176 181 194 190 192 195 220 185 151 155 137 54 102 185 93 173 153 148 65 222 241 274 211 168 188 167 162 186 170 128 139 155 245 31 89 115 221 132 252 267 271 182 206 214 250 309 266 241 259 271 271 257 239 232 197 134
129 140 183 60 140 163 151 155 196 120 115 150 190 161 171 192 77 169 78 70 78 123 8 101 12 119 137 155 150 162 142 164 178 179 234 174 213 125 314 103 168 151 149 180 179 225 143 122 105 167 212 176 229 337 258 285 92 181 165 216 167 164 101 122 190 236 58 351 102 153 292 272 244 220 229 226 255 253 271 242 256 284 252 239 240 232 258 229
86 105 66 339 199 172 152 181 106 146 152 224 94 53 105 119 125 197 124 294 93 41 52 58 186 119 268 138 175 150 165 177 170 197 175 165 237 189 297 359 145 161 116 38 64 219 81 100 73 338 312 315 333 333 43 338 64 24 303 75 144 196 178 165 159 177 152 150 111 4 255 252 288 253 238 230 239 259 267 213 220 261 242 251 226 202 201 209
80 120 146 356 96 168 167 185 184 192 133 31 79 122 354 156 135 133 161 190 136 129 144 166 38 314 154 137 145 170 191 154 246 161 300 217 163 84 341 356 182 167 156 209 167 203 156 252 130 117 35 346 346 349 355 347 44 210 182 205 168 86 81 126 100 69 113 214 166 130 230 270 273 319 316 261 327 304 264 230 190 207 251 221 205 205 212 313
102 68 34 347 39 215 197 208 186 159 147 150 136 141 141 51 309 177 150 163 126 141 108 161 182 146 96 176 96 82 27 131 147 229 100 139 70 357 356 36 281 171 57 288 49 154 139 178 136 154 167 176 193 193 215 213 204 188 225 176 186 155 144 130 174 93 190 268 154 173 238 249 296 325 345 325 337 280 264 239 230 226 188 229 223 221 235 218
175 140 194 36 56 357 3 305 122 161 158 153 136 195 122 112 344 330 112 96 172 128 71 129 21 84 104 122 119 162 181 344 110 183 148 156 281 360 289 345 113 161 261 13 133 137 171 139 194 184 188 198 204 200 22 91 72 184 216 160 185 177 173 125 107 111 210 193 174 231 227 229 260 260 250 264 284 214 213 226 204 209 251 230 248 270 253 222
69 93 157 162 71 332 308 305 130 152 182 166 168 167 168 145 145 57 280 116 212 148 95 59 174 131 218 129 167 149 180 116 348 89 122 126 249 237 303 136 100 53 355 58 36 79 90 175 220 205 221 224 142 165 213 147 168 192 133 182 171 158 177 159 178 215 166 93 247 234 222 242 232 244 250 243 253 260 269 255 242 232 221 217 231 270 282 283
147 263 56 277 128 181 166 216 179 143 85 165 187 138 161 142 158 153 3 349 113 151 116 353 78 290 172 169 145 142 165 137 99 150 52 329 106 346 63 9 94 303 334 73 338 134 142 195 227 158 242 163 133 164 166 162 177 173 177 163 169 181 169 185 212 221 133 191 229 231 153 226 242 184 217 215 201 207 211 216 215 218 258 295 295 272 262 255
47 82 126 335 87 290 158 104 150 165 152 166 100 161 171 168 176 177 153 130 92 214 126 158 198 204 172 168 140 141 159 143 229 61 164 166 169 124 89 47 299 12 101 73 85 173 115 242 195 165 224 157 222 138 170 157 135 116 182 180 181 171 190 198 214 218 194 217 230 238 172 226 238 184 211 225 214 216 214 101 181 248 242 254 247 239 238 244
239 131 146 15 51 99 150 136 156 162 191 201 146 201 172 181 167 137 158 141 157 219 102 129 176 173 167 151 124 152 193 177 164 152 213 133 182 107 183 186 153 1 35 154 151 269 145 248 95 123 177 260 242 101 93 175 154 184 218 197 187 192 198 204 212 221 212 249 261 268 261 271 252 164 213 238 226 216 38 276 235 231 238 238 235 239 242 245
78 360 349 124 105 173 134 154 159 161 161 220 152 194 163 183 184 159 156 187 150 161 170 180 151 126 105 130 120 116 154 156 154 170 171 159 167 209 135 239 142 152 144 110 122 122 145 215 53 86 163 280 356 168 120 79 63 140 212 194 202 200 210 220 217 208 159 210 230 243 262 257 259 139 212 213 175 212 229 231 232 235 228 226 229 235 235 244
51 300 93 97 100 197 163 168 161 145 197 198 177 188 170 183 136 138 95 288 147 169 164 145 165 134 176 146 198 176 176 135 137 123 129 114 112 109 95 141 144 151 163 135 280 124 157 131 138 137 154 246 302 122 123 100 62 294 250 221 205 203 206 205 235 234 207 200 209 208 235 245 216 177 194 219 183 216 225 226 235 239 236 214 218 224 224 233